Location: Maccacari
(45.1333°N, 11.1333°E)
Time: 01:27:54
(UTC+00:00)

A-11 Canister half - Pass Details

Date: 29 January 2021
Orbit: 1525 x 1684 km, 47.3° (Epoch: 07 March)

Event Time Altitude Azimuth Distance (km) Brightness Sun altitude
Rises 10:35:46 0° 194° (SSW) 4,664 12.5 25.9°
Reaches altitude 10° 10:39:27 10° 181° (S) 3,680 12.6 26.1°
Maximum altitude 10:46:34 25° 130° (SE) 2,675 11.4 26.3°
Drops below altitude 10° 10:53:43 10° 80° (E) 3,721 11.1 26.6°
Sets 10:57:26 0° 68° (ENE) 4,726 11.4 26.7°
